Location: Choisy
(48.7685°N, 2.4187°E)
Time: 09:16:13
(UTC+00:00)

ATLAS 3B R/B - Pass Details

Date: 05 December 2023
Orbit: 947 x 1247 km, 63.8° (Epoch: 10 February)

Event Time Altitude Azimuth Distance (km) Brightness Sun altitude
Exits shadow 06:44:11 - 289° (WNW) 3,260 4.6 -6.9°
Reaches altitude 10° 06:44:55 10° 292° (WNW) 3,058 4.4 -6.7°
Maximum altitude 06:51:03 27° 349° (N) 2,115 4.0 -5.8°
Drops below altitude 10° 06:57:28 10° 45° (NE) 3,201 5.4 -4.9°
Sets 07:00:51 0° 57° (ENE) 4,187 6.2 -4.4°
